Regional Weather Roundup
Issued by NWS Raleigh/Durham, NC

Home | Current Version | Previous Version | Text Only | Print | Product List | Glossary On
Versions: 1 2 3 4 5 6 7 8 9 10 11 12 13 14 15 16 17 18 19 20 21 22 23 24 25 26 27 28 29
000
ASUS42 KRAH 222010
RWRRAH
NORTH CAROLINA WEATHER ROUNDUP
NATIONAL WEATHER SERVICE RALEIGH NC
300 PM EST WED FEB 22 2017

NOTE: "FAIR" INDICATES FEW OR NO CLOUDS BELOW 12,000 FEET WITH NO
SIGNIFICANT WEATHER AND/OR OBSTRUCTIONS TO VISIBILITY.

NCZ001-053-055-056-065-067-222100-
WESTERN NORTH CAROLINA

CITY           SKY/WX    TMP DP  RH WIND       PRES   REMARKS
ASHEVILLE      CLOUDY    54  51  90 S5        29.95F VSB 1
JEFFERSON      LGT RAIN  51  50  99 CALM      29.97S
MORGANTON      CLOUDY    56  54  94 CALM      30.00F
HICKORY        CLOUDY    57  53  86 N3        29.95F
RUTHERFORDTON  CLOUDY    59  55  85 CALM      29.96S
MOUNT AIRY     RAIN      56  54  92 CALM      29.98F
BOONE          RAIN      52  52 100 CALM      29.97F
$$

NCZ021-022-025-041-071-084-088-222100-
CENTRAL NORTH CAROLINA

CITY           SKY/WX    TMP DP  RH WIND       PRES   REMARKS
CHARLOTTE      CLOUDY    67  53  61 N6        29.93F
GREENSBORO     LGT RAIN  59  56  89 N6        29.94F
WINSTON-SALEM  LGT RAIN  58  52  80 CALM      29.97F
RALEIGH-DURHAM CLOUDY    70  50  49 CALM      29.94F
FORT BRAGG     CLOUDY    71  52  51 E6        29.91F
FAYETTEVILLE   MOSUNNY   74  53  48 SE10      29.91F
BURLINGTON     CLOUDY    67  53  61 N5        29.93F
LAURINBURG     PTSUNNY   75  51  43 S9        29.91F
$$

NCZ011-015-027-028-043-044-047-080-103-222100-
NORTHEASTERN NORTH CAROLINA

CITY           SKY/WX    TMP DP  RH WIND       PRES   REMARKS
ROCKY MT-WILSO CLOUDY    70  49  47 S5        29.94F
GREENVILLE     PTSUNNY   73  46  38 CALM      29.96F
WASHINGTON     PTSUNNY   72  49  44 SE8       29.94F
ELIZABETH CITY CLOUDY    66  51  58 E9        29.97S
MANTEO         MOSUNNY   67  50  54 S12       29.98S
CAPE HATTERAS  SUNNY     74  53  48 S8        29.97F
$$

NCZ078-087-090-091-093-098-101-222100-
SOUTHEASTERN NORTH CAROLINA

CITY           SKY/WX    TMP DP  RH WIND       PRES   REMARKS
LUMBERTON      MOSUNNY   73  49  42 S5        29.90F
GOLDSBORO      CLOUDY    72  49  44 E8        29.91F
KINSTON        CLOUDY    72  50  46 S6        29.94F
KENANSVILLE    NOT AVBL
NEW BERN       CLOUDY    71  51  49 S9        29.95F
CHERRY POINT   NOT AVBL
BEAUFORT       MOSUNNY   70  53  54 S9        29.96F
JACKSONVILLE   PTSUNNY   69  55  60 S13       29.95S
WILMINGTON     MOSUNNY   72  55  55 SE10      29.93F
$$





USA.gov is the U.S. government's official web portal to all federal, state and local government web resources and services.